• Join FlightAware (Why Join?)
  • Login
  • US Flag 
05:30AM EST


 

Airport Tracker/Info


-or-


 

Live Flight TrackerFlight Track Log ✈ EJA929 ✈ 01-Sep-2013 ✈ KIWA - KSMO

Flight Track Log - Related Links

Times and Time Zones

All times are in EDT time to prevent confusion due to time zone crossing. See the EJA929 flight status page for this flight to view local times or setup timezone preferences in your user account.

Time Position Orientation Groundspeed Altitude Reporting Facility
EDT Latitude Longitude Course Direction KTS MPH feet Rate Location/Type
11:31AM 33.3000 -111.6500 140° Southeast 148 170 1,900  Level Phoenix TRACON
11:31AM 33.2667 -111.6167 140° Southeast 235 270 3,500 2,588 Climbing Phoenix TRACON
11:32AM 33.2333 -111.5500 121° Southeast 262 302 6,300 2,835 Climbing Phoenix TRACON
11:33AM 33.3167 -111.5167 18° North 277 319 9,500 2,633 Climbing Phoenix TRACON
11:35AM 33.3833 -111.5833 320° Northwest 293 337 12,400 2,409 Climbing Phoenix TRACON
11:36AM 33.4500 -111.6500 320° Northwest 313 360 14,800 2,165 Climbing Phoenix TRACON
11:37AM 33.5206 -111.7394 313° West 327 376 17,200 1,791 Climbing Albuquerque Center
11:38AM 33.5892 -111.8200 316° Northwest 341 392 18,800 1,377 Climbing Albuquerque Center
11:39AM 33.6678 -111.9114 316° Northwest 387 445 20,000 1,377 Climbing Albuquerque Center
11:40AM 33.7492 -112.0061 316° Northwest 400 460 21,600 1,574 Climbing Albuquerque Center
11:41AM 33.8325 -112.1047 316° Northwest 413 475 23,200 1,180 Climbing Albuquerque Center
11:42AM 33.9219 -112.2089 316° Northwest 430 495 24,000 984 Climbing Albuquerque Center
11:43AM 34.0100 -112.3133 315° West 451 519 25,200 1,122 Climbing Albuquerque Center
11:44AM 34.1200 -112.3925 329° Northwest 457 526 26,300 1,122 Climbing Albuquerque Center
11:45AM 34.2367 -112.4636 333° Northwest 465 535 27,500 1,180 Climbing Albuquerque Center
11:46AM 34.3775 -112.5503 333° Northwest 471 542 28,700 934 Climbing Albuquerque Center
11:47AM 34.4817 -112.6153 333° Northwest 473 544 29,400 732 Climbing Albuquerque Center
11:48AM 34.6025 -112.6914 333° Northwest 485 558 30,200 1,073 Climbing Albuquerque Center
11:49AM 34.6975 -112.8069 315° West 493 567 31,600 1,082 Climbing Albuquerque Center
11:50AM 34.7244 -113.0044 279° West 497 572 32,400 934 Climbing Albuquerque Center
11:51AM 34.7286 -113.1731 272° West 500 575 33,500 787 Climbing Albuquerque Center
11:52AM 34.7342 -113.3428 272° West 501 577 34,000 244 Climbing Albuquerque Center
11:53AM 34.7389 -113.5111 272° West 501 577 34,000  Level Albuquerque Center
11:54AM 34.7442 -113.6808 272° West 503 579 34,000  Level Albuquerque Center
11:55AM 34.7483 -113.8500 272° West 503 579 34,000 49 Level Albuquerque Center
11:56AM 34.7536 -114.0450 272° West 512 589 34,100 44 Climbing Albuquerque Center
11:57AM 34.7606 -114.2572 272° West 522 601 34,100  Level Los Angeles Center
11:58AM 34.7639 -114.4319 271° West 520 598 34,100  Level Los Angeles Center
11:59AM 34.7683 -114.6014 272° West 509 586 34,100  Level Los Angeles Center
12:00PM 34.7725 -114.7719 272° West 505 581 34,100  Level Los Angeles Center
12:02PM 34.7756 -114.9722 271° West 497 572 34,100  Level Los Angeles Center
12:03PM 34.7797 -115.1356 272° West 489 563 34,100 -195 Level Los Angeles Center
12:04PM 34.7822 -115.2992 271° West 485 558 33,700 -1,415 Descending Los Angeles Center
12:05PM 34.7847 -115.4992 271° West 489 563 31,200 -2,244 Descending Los Angeles Center
12:06PM 34.7889 -115.6661 272° West 501 577 29,100 -1,561 Descending Los Angeles Center
12:07PM 34.7903 -115.8281 271° West 486 559 28,000 -537 Descending Los Angeles Center
12:08PM 34.7919 -115.9850 271° West 471 542 28,000  Level Los Angeles Center
12:09PM 34.7936 -116.1400 271° West 462 532 28,000 -634 Level Los Angeles Center
12:10PM 34.7956 -116.2933 271° West 456 525 26,700 -1,854 Descending Los Angeles Center
12:11PM 34.7964 -116.4503 270° West 463 533 24,200 -1,902 Descending Los Angeles Center
12:12PM 34.7833 -116.6064 264° West 462 532 22,800 -1,548 Descending Los Angeles Center
12:13PM 34.7656 -116.7861 263° West 447 514 21,000 -1,610 Descending Los Angeles Center
12:14PM 34.7503 -116.9317 263° West 436 502 19,500 -1,463 Descending Los Angeles Center
12:15PM 34.7361 -117.0747 263° West 428 493 18,000 -1,415 Descending Los Angeles Center
12:16PM 34.7186 -117.2142 261° West 419 482 16,600 -1,415 Descending Los Angeles Center
12:17PM 34.6903 -117.3508 256° West 417 480 15,100 -1,512 Descending Los Angeles Center
12:18PM 34.6644 -117.4853 257° West 409 471 13,500 -1,463 Descending Los Angeles Center
12:19PM 34.6408 -117.6108 257° West 388 447 12,100 -683 Descending Los Angeles Center
12:20PM 34.6189 -117.7275 257° West 362 417 12,100  Level Los Angeles Center
12:21PM 34.5972 -117.8356 256° West 328 377 12,100  Level Los Angeles Center
12:22PM 34.5781 -117.9333 257° West 305 351 12,100 -439 Level Los Angeles Center
12:23PM 34.5553 -118.0489 257° West 293 337 11,200 -1,171 Descending Los Angeles Center
12:24PM 34.5361 -118.1408 256° West 283 326 9,700 -1,317 Descending Los Angeles Center
12:25PM 34.5197 -118.2231 256° West 283 326 8,500 -780 Descending Los Angeles Center
12:26PM 34.4725 -118.3133 238° Southwest 268 308 8,100 -195 Descending Los Angeles Center
12:27PM 34.4014 -118.3156 181° South 269 310 8,100 -48 Level Los Angeles Center
12:28PM 34.3336 -118.3028 171° South 246 283 8,000 -146 Descending Los Angeles Center
12:29PM 34.2717 -118.2925 172° South 228 262 7,800 -537 Descending Los Angeles Center
12:30PM 34.2131 -118.2831 172° South 216 249 6,900 -1,463 Descending Los Angeles Center
12:31PM 34.1633 -118.3022 198° South 192 221 4,800 -1,610 Descending Los Angeles Center
12:32PM 34.1217 -118.3278 207° Southwest 176 203 3,600 -1,073 Descending Los Angeles Center
12:33PM 34.0917 -118.3603 222° Southwest 157 181 2,600 -1,024 Descending Los Angeles Center
12:34PM 34.0603 -118.3989 226° Southwest 143 165 1,500 -927 Descending Los Angeles Center
12:36PM 34.0339 -118.4314 226° Southwest 139 160 700 -585 Descending Los Angeles Center
12:37PM 34.0092 -118.4606 224° Southwest 138 159 300 -387 Descending Los Angeles Center
12:39PM 34.0000 -118.4500 North  Level FlightAware Approximate